Time,TemperatureF,DewpointF,PressureIn,WindDirection,WindDirectionDegrees,WindSpeedMPH,WindSpeedGustMPH,Humidity,HourlyPrecipIn,Conditions,Clouds,dailyrainin,SoftwareType,DateUTC
2013-01-28 00:00:00,43.3,43.0,29.89,South,175,6.0,11.0,98,0.00,,,0.00,weatherlink.com 1.10,2013-01-28 06:00:00,
2013-01-28 00:15:00,44.1,44.0,29.88,SSE,167,9.0,12.0,98,0.00,,,0.00,weatherlink.com 1.10,2013-01-28 06:15:00,
2013-01-28 00:30:00,44.9,44.0,29.88,SSE,155,8.0,13.0,98,0.00,,,0.00,weatherlink.com 1.10,2013-01-28 06:30:00,
2013-01-28 00:45:00,45.7,45.0,29.87,SSE,167,5.0,15.0,98,0.00,,,0.00,weatherlink.com 1.10,2013-01-28 06:45:00,
2013-01-28 01:00:00,46.1,46.0,29.87,South,183,9.0,14.0,98,0.00,,,0.00,weatherlink.com 1.10,2013-01-28 07:00:00,
2013-01-28 01:15:00,46.2,46.0,29.87,South,173,4.0,14.0,98,0.00,,,0.00,weatherlink.com 1.10,2013-01-28 07:15:00,
2013-01-28 01:30:00,46.8,46.0,29.87,South,187,6.0,12.0,98,0.00,,,0.00,weatherlink.com 1.10,2013-01-28 07:30:00,
2013-01-28 01:45:00,47.3,47.0,29.86,SSW,194,8.0,18.0,98,0.00,,,0.00,weatherlink.com 1.10,2013-01-28 07:45:00,
2013-01-28 02:01:00,47.7,47.0,29.86,SSE,160,7.0,12.0,98,0.00,,,0.00,weatherlink.com 1.10,2013-01-28 08:01:00,
2013-01-28 02:16:00,48.0,48.0,29.86,SSW,194,5.0,15.0,98,0.00,,,0.00,weatherlink.com 1.10,2013-01-28 08:16:00,
2013-01-28 02:31:00,48.4,48.0,29.86,SSW,193,9.0,13.0,98,0.00,,,0.00,weatherlink.com 1.10,2013-01-28 08:31:00,
2013-01-28 02:46:00,48.8,48.0,29.86,SSE,160,11.0,15.0,98,0.00,,,0.00,weatherlink.com 1.10,2013-01-28 08:46:00,
2013-01-28 03:01:00,49.1,49.0,29.85,SSW,208,3.0,16.0,98,0.00,,,0.00,weatherlink.com 1.10,2013-01-28 09:01:00,
2013-01-28 03:16:00,49.3,49.0,29.85,SE,136,7.0,13.0,97,0.00,,,0.00,weatherlink.com 1.10,2013-01-28 09:16:00,
2013-01-28 03:31:00,49.5,49.0,29.85,SE,128,4.0,13.0,97,0.00,,,0.00,weatherlink.com 1.10,2013-01-28 09:31:00,
2013-01-28 03:46:00,50.0,49.0,29.85,SSE,160,8.0,19.0,97,0.00,,,0.00,weatherlink.com 1.10,2013-01-28 09:46:00,
2013-01-28 04:01:00,50.3,49.0,29.85,SW,226,5.0,16.0,96,0.00,,,0.00,weatherlink.com 1.10,2013-01-28 10:01:00,
2013-01-28 04:16:00,50.2,49.0,29.85,South,179,5.0,15.0,96,0.00,,,0.00,weatherlink.com 1.10,2013-01-28 10:16:00,
2013-01-28 04:31:00,50.3,49.0,29.86,SSE,162,7.0,12.0,96,0.00,,,0.00,weatherlink.com 1.10,2013-01-28 10:31:00,
2013-01-28 04:46:00,50.3,49.0,29.85,SW,224,10.0,12.0,96,0.00,,,0.00,weatherlink.com 1.10,2013-01-28 10:46:00,
2013-01-28 05:01:00,50.5,49.0,29.85,SSW,210,3.0,12.0,96,0.00,,,0.00,weatherlink.com 1.10,2013-01-28 11:01:00,
2013-01-28 05:16:00,50.7,50.0,29.86,SW,235,8.0,12.0,96,0.00,,,0.00,weatherlink.com 1.10,2013-01-28 11:16:00,
2013-01-28 05:31:00,50.8,50.0,29.86,SSE,158,4.0,12.0,96,0.00,,,0.00,weatherlink.com 1.10,2013-01-28 11:31:00,
2013-01-28 05:46:00,50.5,49.0,29.86,South,170,3.0,7.0,95,0.00,,,0.00,weatherlink.com 1.10,2013-01-28 11:46:00,
2013-01-28 06:01:00,50.3,49.0,29.87,South,179,2.0,6.0,96,0.00,,,0.00,weatherlink.com 1.10,2013-01-28 12:01:00,
2013-01-28 06:16:00,50.2,49.0,29.88,WSW,240,3.0,7.0,96,0.01,,,0.01,weatherlink.com 1.10,2013-01-28 12:16:00,
2013-01-28 06:31:00,49.5,48.0,29.89,West,281,3.0,6.0,96,0.01,,,0.01,weatherlink.com 1.10,2013-01-28 12:31:00,
2013-01-28 06:46:00,48.7,48.0,29.89,West,278,2.0,4.0,96,0.01,,,0.01,weatherlink.com 1.10,2013-01-28 12:46:00,
2013-01-28 07:01:00,48.1,47.0,29.91,WNW,285,3.0,4.0,96,0.02,,,0.02,weatherlink.com 1.10,2013-01-28 13:01:00,
2013-01-28 07:16:00,47.4,47.0,29.91,West,262,1.0,4.0,97,0.01,,,0.02,weatherlink.com 1.10,2013-01-28 13:16:00,
2013-01-28 07:31:00,46.9,46.0,29.91,WSW,250,0.0,3.0,97,0.01,,,0.02,weatherlink.com 1.10,2013-01-28 13:31:00,
2013-01-28 07:46:00,47.0,46.0,29.92,West,274,0.0,3.0,97,0.01,,,0.02,weatherlink.com 1.10,2013-01-28 13:46:00,
2013-01-28 08:01:00,47.0,46.0,29.92,West,271,0.0,2.0,97,0.00,,,0.02,weatherlink.com 1.10,2013-01-28 14:01:00,
2013-01-28 08:16:00,46.8,46.0,29.92,WNW,283,0.0,2.0,97,0.00,,,0.02,weatherlink.com 1.10,2013-01-28 14:16:00,
2013-01-28 08:31:00,47.0,47.0,29.93,West,281,0.0,3.0,98,0.00,,,0.02,weatherlink.com 1.10,2013-01-28 14:31:00,
2013-01-28 08:46:00,47.6,47.0,29.93,NW,311,1.0,4.0,98,0.00,,,0.02,weatherlink.com 1.10,2013-01-28 14:46:00,
2013-01-28 09:01:00,47.4,47.0,29.93,WSW,257,0.0,1.0,98,0.00,,,0.02,weatherlink.com 1.10,2013-01-28 15:01:00,
2013-01-28 09:16:00,47.3,47.0,29.94,SW,232,0.0,1.0,98,0.00,,,0.02,weatherlink.com 1.10,2013-01-28 15:16:00,
2013-01-28 09:31:00,47.6,47.0,29.94,West,264,0.0,0.0,98,0.00,,,0.02,weatherlink.com 1.10,2013-01-28 15:31:00,
2013-01-28 09:46:00,47.4,47.0,29.94,NW,309,0.0,1.0,98,0.00,,,0.02,weatherlink.com 1.10,2013-01-28 15:46:00,
2013-01-28 10:01:00,47.5,47.0,29.94,NW,307,0.0,3.0,98,0.00,,,0.02,weatherlink.com 1.10,2013-01-28 16:01:00,
2013-01-28 10:16:00,47.6,47.0,29.95,WNW,297,0.0,2.0,98,0.00,,,0.02,weatherlink.com 1.10,2013-01-28 16:16:00,
2013-01-28 10:31:00,47.6,47.0,29.95,WNW,302,0.0,0.0,98,0.00,,,0.02,weatherlink.com 1.10,2013-01-28 16:31:00,
2013-01-28 10:46:00,47.8,47.0,29.95,WNW,297,1.0,2.0,98,0.00,,,0.02,weatherlink.com 1.10,2013-01-28 16:46:00,
2013-01-28 11:01:00,48.2,48.0,29.95,WNW,297,0.0,2.0,98,0.00,,,0.02,weatherlink.com 1.10,2013-01-28 17:01:00,
2013-01-28 11:16:00,48.2,47.0,29.95,WNW,295,0.0,0.0,97,0.00,,,0.02,weatherlink.com 1.10,2013-01-28 17:16:00,
2013-01-28 11:31:00,48.5,48.0,29.95,WNW,295,0.0,0.0,97,0.00,,,0.02,weatherlink.com 1.10,2013-01-28 17:31:00,
2013-01-28 11:46:00,48.3,48.0,29.93,NE,41,0.0,2.0,97,0.00,,,0.02,weatherlink.com 1.10,2013-01-28 17:46:00,
2013-01-28 12:01:00,48.8,48.0,29.93,NNE,13,0.0,0.0,97,0.00,,,0.02,weatherlink.com 1.10,2013-01-28 18:01:00,
2013-01-28 12:17:00,48.4,48.0,29.93,ENE,69,0.0,0.0,97,0.00,,,0.02,weatherlink.com 1.10,2013-01-28 18:17:00,
2013-01-28 12:31:00,48.5,48.0,29.92,NE,44,0.0,2.0,97,0.00,,,0.02,weatherlink.com 1.10,2013-01-28 18:31:00,
2013-01-28 12:46:00,48.8,48.0,29.92,East,98,0.0,2.0,96,0.00,,,0.02,weatherlink.com 1.10,2013-01-28 18:46:00,
2013-01-28 13:02:00,49.0,48.0,29.91,NNE,30,0.0,1.0,96,0.00,,,0.02,weatherlink.com 1.10,2013-01-28 19:02:00,
2013-01-28 13:17:00,48.8,48.0,29.91,NE,38,1.0,2.0,95,0.00,,,0.02,weatherlink.com 1.10,2013-01-28 19:17:00,
2013-01-28 13:32:00,48.6,47.0,29.90,NE,50,0.0,1.0,94,0.00,,,0.02,weatherlink.com 1.10,2013-01-28 19:32:00,
2013-01-28 13:47:00,48.7,47.0,29.90,East,101,0.0,2.0,94,0.00,,,0.02,weatherlink.com 1.10,2013-01-28 19:47:00,
2013-01-28 14:02:00,48.8,47.0,29.89,NE,54,0.0,2.0,94,0.00,,,0.02,weatherlink.com 1.10,2013-01-28 20:02:00,
2013-01-28 14:17:00,49.0,47.0,29.89,NE,41,0.0,3.0,93,0.00,,,0.02,weatherlink.com 1.10,2013-01-28 20:17:00,
2013-01-28 14:32:00,49.2,47.0,29.89,NE,44,2.0,5.0,93,0.00,,,0.02,weatherlink.com 1.10,2013-01-28 20:32:00,
2013-01-28 14:47:00,49.2,48.0,29.89,ENE,78,1.0,3.0,94,0.00,,,0.02,weatherlink.com 1.10,2013-01-28 20:47:00,
2013-01-28 15:02:00,49.1,48.0,29.89,ESE,103,0.0,4.0,94,0.00,,,0.02,weatherlink.com 1.10,2013-01-28 21:02:00,
2013-01-28 15:17:00,48.9,47.0,29.89,ESE,115,3.0,3.0,94,0.00,,,0.02,weatherlink.com 1.10,2013-01-28 21:17:00,
2013-01-28 15:32:00,48.7,47.0,29.89,East,92,0.0,4.0,95,0.00,,,0.02,weatherlink.com 1.10,2013-01-28 21:32:00,
2013-01-28 15:47:00,48.4,47.0,29.89,NE,53,0.0,3.0,95,0.00,,,0.02,weatherlink.com 1.10,2013-01-28 21:47:00,
2013-01-28 16:02:00,48.0,47.0,29.89,SE,143,0.0,5.0,95,0.00,,,0.02,weatherlink.com 1.10,2013-01-28 22:02:00,
2013-01-28 16:17:00,47.4,46.0,29.88,East,101,1.0,4.0,96,0.00,,,0.02,weatherlink.com 1.10,2013-01-28 22:17:00,
2013-01-28 16:32:00,46.9,46.0,29.87,NE,41,0.0,2.0,96,0.00,,,0.02,weatherlink.com 1.10,2013-01-28 22:32:00,
2013-01-28 16:47:00,46.7,46.0,29.87,ENE,57,1.0,3.0,96,0.00,,,0.02,weatherlink.com 1.10,2013-01-28 22:47:00,
2013-01-28 17:02:00,46.5,46.0,29.87,ESE,103,2.0,3.0,97,0.00,,,0.02,weatherlink.com 1.10,2013-01-28 23:02:00,
2013-01-28 17:17:00,46.6,46.0,29.87,ENE,77,2.0,3.0,97,0.00,,,0.02,weatherlink.com 1.10,2013-01-28 23:17:00,
2013-01-28 17:32:00,46.4,46.0,29.87,ENE,71,1.0,2.0,97,0.00,,,0.02,weatherlink.com 1.10,2013-01-28 23:32:00,
2013-01-28 17:47:00,46.3,46.0,29.87,NE,54,2.0,3.0,97,0.00,,,0.02,weatherlink.com 1.10,2013-01-28 23:47:00,
2013-01-28 18:02:00,46.3,46.0,29.86,SE,124,1.0,4.0,97,0.00,,,0.02,weatherlink.com 1.10,2013-01-29 00:02:00,
2013-01-28 18:17:00,46.4,46.0,29.86,ESE,113,2.0,3.0,97,0.00,,,0.02,weatherlink.com 1.10,2013-01-29 00:17:00,
2013-01-28 18:32:00,46.3,46.0,29.86,ESE,115,1.0,3.0,97,0.00,,,0.02,weatherlink.com 1.10,2013-01-29 00:32:00,
2013-01-28 18:47:00,46.3,46.0,29.86,ENE,65,0.0,4.0,98,0.00,,,0.02,weatherlink.com 1.10,2013-01-29 00:47:00,
2013-01-28 19:02:00,46.3,46.0,29.85,ESE,110,2.0,5.0,98,0.00,,,0.02,weatherlink.com 1.10,2013-01-29 01:02:00,
2013-01-28 19:17:00,46.3,46.0,29.85,East,95,2.0,4.0,98,0.00,,,0.02,weatherlink.com 1.10,2013-01-29 01:17:00,
2013-01-28 19:32:00,46.7,46.0,29.85,SE,134,4.0,6.0,98,0.00,,,0.02,weatherlink.com 1.10,2013-01-29 01:32:00,
2013-01-28 19:47:00,46.8,46.0,29.84,ESE,117,5.0,7.0,98,0.00,,,0.02,weatherlink.com 1.10,2013-01-29 01:47:00,
2013-01-28 20:02:00,46.8,46.0,29.84,ESE,113,3.0,7.0,98,0.00,,,0.02,weatherlink.com 1.10,2013-01-29 02:02:00,
2013-01-28 20:17:00,47.1,47.0,29.83,ESE,115,4.0,9.0,98,0.00,,,0.02,weatherlink.com 1.10,2013-01-29 02:17:00,
2013-01-28 20:32:00,48.7,48.0,29.82,SE,128,4.0,7.0,98,0.00,,,0.02,weatherlink.com 1.10,2013-01-29 02:32:00,
2013-01-28 20:47:00,49.3,49.0,29.82,East,94,2.0,7.0,98,0.00,,,0.02,weatherlink.com 1.10,2013-01-29 02:47:00,
2013-01-28 21:02:00,50.0,50.0,29.81,ESE,120,5.0,6.0,99,0.00,,,0.02,weatherlink.com 1.10,2013-01-29 03:02:00,
2013-01-28 21:17:00,51.1,51.0,29.80,SE,136,5.0,8.0,99,0.00,,,0.02,weatherlink.com 1.10,2013-01-29 03:17:00,
2013-01-28 21:32:00,51.9,52.0,29.79,SE,143,3.0,9.0,99,0.00,,,0.02,weatherlink.com 1.10,2013-01-29 03:32:00,
2013-01-28 21:47:00,53.3,53.0,29.79,ESE,121,4.0,10.0,99,0.00,,,0.02,weatherlink.com 1.10,2013-01-29 03:47:00,
2013-01-28 22:02:00,54.2,54.0,29.78,ESE,115,8.0,13.0,99,0.00,,,0.02,weatherlink.com 1.10,2013-01-29 04:02:00,
2013-01-28 22:17:00,54.8,55.0,29.77,SSE,167,7.0,10.0,99,0.00,,,0.02,weatherlink.com 1.10,2013-01-29 04:17:00,
2013-01-28 22:32:00,55.5,55.0,29.76,SE,141,5.0,13.0,99,0.00,,,0.02,weatherlink.com 1.10,2013-01-29 04:32:00,
2013-01-28 22:47:00,55.8,56.0,29.75,SSW,200,5.0,14.0,99,0.00,,,0.02,weatherlink.com 1.10,2013-01-29 04:47:00,
2013-01-28 23:17:00,55.5,55.0,29.75,SE,138,3.0,16.0,99,0.00,,,0.02,weatherlink.com 1.10,2013-01-29 05:17:00,
2013-01-28 23:32:00,55.5,55.0,29.74,South,181,3.0,15.0,99,0.00,,,0.02,weatherlink.com 1.10,2013-01-29 05:32:00,
2013-01-28 23:47:00,55.5,55.0,29.74,South,173,8.0,12.0,99,0.00,,,0.02,weatherlink.com 1.10,2013-01-29 05:47:00,